Orbital Elements at Epoch 2459200.5 (2020-Dec-17.0) TDB
Reference: JPL 23 (heliocentric ecliptic J2000)
Element | Value | Uncertainty (1-sigma) | Units |
e | .07812504270220248 | 3.6332e-08 | |
a | 3.21185451054761 | 2.8629e-08 | au |
q | 2.960928239757816 | 1.1815e-07 | au |
i | 7.620722649009816 | 6.6613e-06 | deg |
node | 25.16533718807576 | 3.5663e-05 | deg |
peri | 255.4128992669045 | 6.1472e-05 | deg |
M | 213.9861311631255 | 5.1788e-05 | deg |
tp | 2460053.254129636798 (2023-Apr-18.75412964) | 0.00030394 | TDB |
period | 2102.481696531278 5.76 | 2.8111e-05 7.696e-08 | d yr |
n | .1712262230838614 | 2.2893e-09 | deg/d |
Q | 3.462780781337403 | 3.0866e-08 | au |
|
| | Orbit Determination Parameters
Additional Information
|